GFSFLT1_850_temp_000.txt.gz
Temp
20 19 18 16 15 14 13 12 12 11 11 11 10 10 10 10 9 9 8 8 9 9 8 8 7 7 7 6 6 6 6 6
20 19 17 16 14 13 12 12 11 11 10 10 10 10 10 10 9 9 8 8 8 8 8 7 7 7 7 6 6 5 6 6
19 18 17 15 14 13 12 12 11 11 10 10 10 10 10 10 9 9 8 8 7 7 7 7 7 6 6 6 6 6 5 5
18 17 16 15 14 13 12 12 12 11 11 10 10 10 10 10 9 9 8 8 7 7 7 7 6 6 6 6 6 6 5 5
17 17 16 15 15 14 13 12 12 12 11 11 10 10 10 9 10 10 9 8 7 7 7 6 6 6 5 5 5 5 5 5
17 16 16 15 15 14 13 12 12 12 11 11 10 10 10 9 9 9 9 8 8 7 6 6 5 5 5 5 5 5 4 4
16 16 16 15 15 14 13 12 12 11 11 11 11 10 9 9 8 8 8 7 7 6 5 5 5 4 4 4 3 3 3 3
16 15 15 15 14 14 14 13 12 12 11 11 10 10 9 8 8 7 7 6 6 5 5 4 4 3 3 3 2 2 2 2
16 16 15 14 14 13 13 13 13 12 12 11 11 10 9 8 7 6 5 5 4 4 3 2 2 2 2 1 1 1 1 0
16 15 15 14 13 13 12 12 12 12 12 11 11 10 8 7 6 5 4 4 2 2 1 1 1 1 0 0 -0 -0 -0 -0
16 15 14 13 12 12 11 11 11 11 10 10 9 9 7 6 4 3 2 2 0 -0 0 -0 0 0 -0 -0 -1 -1 -1 -1
15 14 13 12 11 11 10 10 10 10 9 8 8 7 5 4 3 2 0 -1 -2 -2 -1 0 -0 -0 -1 -1 -1 -1 -2 -1
14 13 13 11 10 9 9 9 9 8 7 6 5 4 3 2 1 0 -1 -2 -2 -1 -1 -1 -1 -1 -2 -2 -2 -2 -2 -2
13 12 11 10 9 9 7 8 8 7 5 4 3 2 1 1 0 -0 -1 -1 -1 -1 -1 -2 -2 -2 -2 -3 -3 -3 -3 -3
12 11 9 8 8 7 7 7 7 6 4 3 2 1 1 0 -1 -2 -2 -1 -2 -2 -2 -2 -3 -3 -3 -3 -3 -3 -4 -4
9 8 8 7 6 6 6 6 6 5 4 3 2 1 0 -1 -2 -2 -1 -2 -2 -2 -3 -3 -3 -3 -4 -4 -4 -4 -4 -5
6 7 6 5 5 5 4 5 5 4 3 2 1 -1 -1 -2 -2 -1 -2 -2 -2 -3 -3 -4 -4 -4 -4 -5 -5 -5 -6 -7
7 6 5 5 5 4 3 3 3 3 2 0 -1 -2 -2 -1 -1 -2 -2 -2 -3 -3 -4 -4 -5 -5 -6 -6 -6 -7 -7 -8
5 5 5 5 4 3 3 1 0 0 -0 -1 -1 -1 -1 -2 -2 -2 -3 -3 -4 -4 -5 -5 -6 -6 -7 -7 -8 -8 -8 -8

GFSFLT1_850_temp_003.txt.gz
Temp
20 19 19 18 17 16 15 14 14 13 13 12 11 11 11 10 10 9 10 10 10 9 8 8 8 7 7 7 7 7 7 6
19 19 18 17 17 16 15 14 13 13 12 12 11 11 11 11 10 10 9 9 9 9 8 7 7 7 7 7 6 6 7 7
18 17 17 16 16 15 15 14 13 12 12 12 11 11 10 10 10 9 9 9 9 8 8 8 7 7 7 7 6 6 6 6
17 17 17 16 15 15 15 14 13 12 12 12 11 10 10 10 10 9 9 9 9 8 8 7 7 7 6 6 6 6 5 5
17 16 16 16 15 15 14 14 13 13 12 12 11 11 11 10 10 10 10 9 9 8 7 7 7 6 6 6 6 5 5 5
16 16 16 15 15 14 14 14 14 13 13 12 11 11 11 11 10 10 9 9 9 7 7 7 6 6 5 5 5 5 5 4
16 16 16 15 15 14 14 13 13 13 13 13 12 12 11 11 10 10 9 8 8 7 7 6 6 5 5 4 3 3 3 3
16 16 15 15 14 14 13 13 13 12 12 12 12 12 11 11 11 10 9 8 7 7 6 5 4 4 4 3 1 2 2 2
16 16 15 14 13 13 12 12 12 12 12 12 12 11 11 11 11 10 9 8 6 5 5 4 3 3 2 1 -1 1 1 1
15 15 14 13 13 12 12 12 11 11 11 11 11 11 10 10 9 7 6 5 4 4 3 2 2 1 -0 0 0 0 0 -0
14 13 13 13 12 12 12 11 10 10 10 10 10 9 8 8 6 5 4 4 3 1 -0 -0 -1 -1 -0 0 0 -0 -1 -1
13 13 12 11 10 10 10 9 9 8 8 9 9 8 7 6 4 4 3 2 1 0 0 -1 -1 -1 -1 -1 -1 -1 -1 -1
12 11 11 10 10 9 9 8 7 7 7 7 7 6 5 4 3 2 2 1 0 -0 -1 -1 -1 -1 -1 -1 -2 -2 -2 -2
11 11 10 10 9 8 7 7 6 6 6 6 5 4 3 2 1 1 0 0 0 -0 -1 -1 -1 -1 -2 -2 -3 -3 -3 -3
10 9 9 8 7 7 6 5 6 5 5 5 4 3 2 1 1 -0 -0 -0 -1 -1 -1 -2 -2 -2 -3 -3 -3 -3 -4 -4
7 7 7 6 6 5 5 5 4 4 5 4 2 1 1 0 -0 -1 -1 -1 -1 -2 -2 -2 -2 -3 -3 -4 -4 -4 -4 -4
7 7 6 6 5 5 5 4 3 2 3 3 2 1 1 0 -1 -1 -1 -1 -2 -2 -2 -3 -3 -4 -4 -5 -5 -5 -6 -6
6 6 5 5 5 4 4 3 2 1 1 0 1 1 -1 -1 -2 -1 -1 -1 -2 -2 -3 -4 -5 -5 -5 -6 -6 -7 -7 -7
6 6 5 5 4 4 3 1 0 1 -0 -0 -0 -1 -1 -1 -1 -1 -1 -2 -3 -3 -4 -5 -5 -6 -6 -7 -8 -9 -9 -9

GFSFLT1_850_temp_006.txt.gz
Temp
20 19 19 18 17 16 16 16 15 15 14 13 13 12 12 11 10 10 11 10 9 9 9 9 8 8 8 8 8 7 8 7
19 19 18 17 17 17 16 15 15 14 14 14 13 13 12 11 11 10 10 9 10 9 9 8 8 7 7 7 7 7 7 6
17 17 17 17 17 16 16 15 14 14 14 13 13 12 12 11 11 10 10 9 9 9 9 9 8 7 7 7 7 6 6 6
17 17 17 16 16 15 15 14 14 14 13 13 12 12 12 12 11 11 10 10 9 9 9 9 8 7 7 7 6 6 6 5
17 16 16 16 15 15 14 14 14 13 13 13 12 12 12 12 12 11 10 10 10 9 8 8 7 7 6 6 6 5 5 5
16 16 16 15 15 14 14 14 13 13 12 12 12 12 12 11 11 11 11 10 10 9 8 8 7 7 6 5 5 4 4 4
16 16 15 15 14 13 13 12 12 12 12 12 12 11 11 11 11 11 11 10 10 9 8 7 7 6 6 5 3 3 3 3
16 15 15 14 14 13 13 12 12 12 12 11 12 11 11 11 11 10 10 9 9 7 7 6 5 4 4 3 3 2 0 1
15 14 13 13 13 12 12 12 12 12 11 11 11 10 10 10 10 9 9 7 6 5 4 3 2 2 2 0 -0 -0 -0 0
14 13 12 12 12 11 11 10 10 10 10 9 9 9 9 8 8 8 7 5 4 3 3 2 0 -0 -0 0 -0 -0 -0 0
12 12 11 11 11 11 11 11 9 9 8 7 7 7 7 7 7 6 4 4 3 3 1 -1 -0 -1 -1 -1 -1 -1 -1 -1
11 11 11 10 9 9 8 7 7 7 7 6 6 6 6 6 5 4 3 3 3 1 1 0 0 -0 -1 -1 -1 -1 -1 -2
11 10 9 9 9 8 7 7 7 6 5 5 5 5 5 4 3 3 2 1 1 0 0 -0 -1 -1 -1 -1 -2 -2 -2 -3
9 9 9 8 8 8 7 6 5 5 4 4 4 4 3 3 2 2 2 1 0 0 -0 -1 -1 -2 -2 -2 -3 -3 -3 -3
8 8 8 7 7 6 6 5 4 4 4 3 3 2 2 1 1 0 0 -0 -0 -0 -1 -1 -2 -2 -2 -3 -3 -4 -4 -4
8 8 7 7 6 6 5 4 4 3 2 2 2 1 1 0 -0 -1 -1 -1 -1 -1 -2 -2 -2 -3 -3 -4 -4 -5 -5 -5
8 8 7 6 6 5 4 4 3 2 1 1 1 -0 -1 -1 -1 -2 -1 -2 -1 -1 -2 -2 -3 -3 -4 -5 -5 -6 -6 -6
7 7 6 6 6 5 4 3 2 1 0 -0 -1 -1 -1 -1 -1 -2 -2 -2 -2 -2 -3 -3 -4 -5 -6 -6 -6 -7 -7 -7
7 6 5 5 4 3 3 2 1 0 -0 -1 -1 -1 -2 -2 -2 -2 -2 -2 -2 -3 -4 -5 -6 -6 -7 -7 -8 -8 -8 -9

GFSFLT1_850_temp_009.txt.gz
Temp
19 19 19 18 17 17 16 16 15 15 14 14 14 14 13 13 12 12 11 11 10 10 9 9 9 9 9 9 9 9 8 8
19 19 18 18 17 16 16 15 15 14 14 14 13 13 13 12 12 12 11 11 11 11 10 9 9 9 9 8 8 8 7 7
17 17 17 17 16 16 15 15 15 14 14 13 13 13 12 12 12 12 11 11 11 11 10 10 9 9 9 8 8 8 7 7
17 17 17 16 16 15 15 15 14 14 13 13 12 12 12 12 12 12 12 11 11 10 10 10 9 9 9 8 8 7 7 6
17 17 16 16 15 15 15 14 14 13 13 12 12 12 11 11 11 11 11 11 11 10 10 10 9 8 8 7 7 6 6 6
16 16 16 15 15 15 14 14 13 12 12 12 12 12 12 11 11 10 11 11 10 9 9 9 9 7 7 6 5 4 4 5
16 15 15 15 14 14 13 12 12 12 11 12 12 11 11 11 11 10 10 10 10 10 9 8 7 6 5 4 3 3 3 2
15 15 14 13 13 12 12 12 12 11 11 11 11 11 10 9 9 9 8 8 8 8 7 6 6 5 3 2 0 0 0 -0
15 13 12 12 12 11 11 11 11 11 11 10 9 9 8 8 7 7 7 7 7 5 5 4 3 2 -1 -1 -1 -0 -0 -0
12 12 12 11 10 10 10 10 10 10 8 7 7 7 6 6 6 6 6 6 6 4 3 1 0 -1 -0 -0 -0 -1 -3 -2
11 11 11 10 10 10 9 9 8 8 7 7 6 5 5 5 5 5 5 4 3 2 1 2 1 -0 -0 -1 -1 -1 -1 -1
10 10 10 9 9 9 8 7 7 7 6 5 5 4 4 4 4 4 4 2 1 1 1 0 0 -1 -1 -1 -1 -1 -2 -2
10 10 9 9 8 7 7 7 6 6 5 4 4 4 4 3 3 3 2 2 0 0 0 0 -0 -1 -1 -2 -2 -2 -2 -3
9 9 8 8 7 7 7 6 5 4 4 4 4 3 2 2 2 1 1 0 -0 -1 -1 -1 -1 -2 -2 -2 -2 -3 -3 -3
8 8 7 7 7 6 6 5 5 4 4 3 3 2 1 1 0 -0 -1 -1 -2 -2 -1 -1 -1 -2 -2 -2 -3 -3 -4 -4
7 7 7 7 6 6 6 5 4 3 3 2 0 0 0 -1 -1 -2 -2 -2 -2 -2 -1 -2 -2 -2 -3 -4 -4 -5 -5 -6
7 7 7 6 6 6 5 4 3 2 1 0 -1 -1 -2 -2 -2 -2 -3 -3 -3 -3 -3 -3 -3 -3 -4 -5 -6 -6 -6 -6
6 6 6 6 5 4 3 3 2 1 -0 -0 -1 -1 -2 -2 -3 -3 -3 -3 -3 -3 -3 -4 -4 -4 -5 -6 -7 -7 -7 -7
5 5 6 6 4 3 2 1 1 0 -1 -2 -2 -2 -3 -3 -3 -2 -3 -3 -4 -4 -4 -4 -5 -6 -7 -7 -7 -7 -8 -8

GFSFLT1_850_temp_012.txt.gz
Temp
18 18 18 17 17 16 16 15 15 15 14 14 14 13 13 13 12 12 12 12 12 11 11 11 10 10 10 9 9 9 9 8
18 19 18 17 16 16 16 15 15 15 14 14 13 13 12 12 12 12 12 12 11 11 11 11 10 10 10 9 9 9 8 8
18 18 18 17 16 16 16 15 15 14 14 13 13 12 12 12 12 12 12 11 11 11 10 11 11 10 10 9 9 9 9 8
17 17 17 16 16 16 15 15 14 14 13 13 12 12 12 12 11 11 11 11 10 10 10 9 10 10 10 9 9 9 8 8
17 17 17 16 16 15 15 14 14 13 12 12 12 11 11 11 11 10 10 10 10 10 10 9 9 8 9 9 8 8 7 6
16 16 16 15 15 14 14 13 12 12 12 11 11 11 10 10 10 10 9 9 9 9 9 9 9 8 7 7 6 6 5 4
15 14 14 14 13 12 12 12 12 12 11 11 11 10 9 9 9 9 9 8 8 8 8 8 8 7 4 3 4 4 3 3
13 13 13 12 12 11 11 11 11 10 10 10 10 9 9 8 8 8 7 7 6 6 6 6 6 4 2 2 1 1 0 -0
12 11 11 11 11 10 10 10 10 9 9 8 8 7 6 6 6 6 6 5 5 5 5 4 3 1 0 -1 -1 -1 -1 -1
11 11 11 11 10 10 10 9 9 8 7 7 6 6 6 6 6 5 5 5 4 4 2 1 -0 -0 -1 -0 -1 -1 -1 -3
11 11 10 10 9 9 8 8 8 7 7 6 6 5 4 4 4 4 3 3 3 1 0 1 1 1 0 -0 -1 -1 -2 -2
10 9 9 9 8 8 7 7 7 7 6 5 4 4 4 4 3 2 2 1 0 1 0 -1 -1 -0 -1 -1 -2 -2 -2 -2
9 9 8 8 7 7 7 6 6 5 5 4 4 3 3 2 2 1 -0 -0 -0 -1 -2 -2 -2 -2 -1 -1 -2 -2 -2 -3
9 9 8 7 7 6 6 6 5 5 4 3 3 3 2 1 0 -0 -1 -1 -2 -2 -2 -3 -2 -2 -2 -2 -2 -3 -3 -3
8 8 7 6 6 6 5 5 5 4 3 2 2 1 0 -0 -1 -1 -1 -2 -2 -2 -3 -3 -2 -2 -3 -3 -3 -3 -3 -4
7 6 6 6 6 5 6 5 3 3 2 1 1 -1 -1 -1 -1 -1 -2 -2 -3 -3 -3 -3 -3 -3 -3 -3 -4 -5 -5 -5
5 4 4 4 5 5 4 3 3 2 1 -0 -1 -2 -2 -2 -2 -3 -3 -4 -3 -3 -3 -4 -4 -4 -4 -5 -6 -7 -7 -7
4 4 5 4 3 3 3 3 1 1 -0 -1 -3 -3 -3 -4 -4 -3 -3 -3 -3 -4 -4 -4 -5 -5 -6 -6 -7 -7 -7 -8
4 4 3 3 3 2 1 1 0 -0 -1 -2 -2 -2 -3 -2 -2 -3 -3 -4 -4 -5 -5 -5 -6 -6 -7 -7 -7 -7 -8 -9

GFSFLT1_850_temp_015.txt.gz
Temp
17 18 18 18 18 16 16 15 15 15 15 14 14 13 13 12 12 12 12 12 11 11 11 11 10 10 10 11 10 10 9 9
18 18 19 18 17 16 16 16 15 14 14 14 13 13 13 12 12 12 12 11 11 11 11 11 10 9 9 9 9 9 9 9
18 18 18 17 17 16 15 15 14 14 13 13 12 12 12 12 12 12 11 11 11 11 10 10 10 10 10 9 8 8 9 9
17 17 16 16 15 15 14 14 13 13 12 12 11 11 11 11 11 11 11 10 10 9 9 9 9 9 10 9 9 8 8 8
15 15 15 14 14 13 13 13 12 12 11 11 11 11 10 10 10 9 9 9 9 9 9 8 8 8 8 9 8 7 6 6
14 14 13 13 12 12 12 11 11 11 11 11 11 11 10 9 8 9 9 9 9 9 8 8 7 7 7 7 7 5 4 3
13 12 11 11 11 11 11 11 11 11 11 11 10 10 10 9 9 8 8 8 7 7 7 6 6 6 5 4 3 2 0 0
12 11 11 11 11 11 11 11 11 10 11 10 9 9 8 7 7 6 5 6 6 5 5 5 5 4 3 1 0 -1 -1 -1
11 11 11 11 10 10 10 10 10 10 9 9 7 6 6 5 5 5 5 5 4 4 4 3 2 1 -0 -1 -1 -1 -1 -1
10 10 10 10 10 9 9 8 8 7 7 6 6 5 5 5 5 5 5 4 3 2 1 -0 -0 -1 -1 -2 -1 -1 -1 -2
10 10 10 9 9 8 8 7 7 6 6 5 5 4 4 4 4 4 3 3 1 -0 -0 -1 -1 -2 -2 -2 -1 -1 -1 -2
9 9 9 8 8 7 7 6 6 6 5 5 4 4 4 3 3 2 2 0 -1 -1 -1 -2 -2 -3 -3 -3 -3 -2 -2 -2
9 8 8 8 7 6 6 6 5 5 5 4 4 3 2 2 1 1 -0 -1 -1 -1 -2 -2 -2 -3 -3 -3 -2 -2 -3 -3
8 7 7 7 7 6 5 5 5 4 3 3 2 1 1 0 -0 -1 -2 -2 -2 -2 -2 -3 -3 -3 -4 -3 -3 -3 -3 -3
7 6 6 6 5 5 5 4 4 3 3 2 1 -0 -1 -1 -2 -2 -2 -2 -2 -2 -3 -3 -3 -3 -3 -4 -4 -4 -4 -4
5 5 4 4 4 4 4 3 3 2 1 1 -0 -1 -2 -2 -2 -3 -3 -3 -3 -3 -3 -3 -3 -4 -4 -4 -4 -5 -5 -5
3 3 4 4 3 3 3 3 2 0 -0 -0 -2 -2 -2 -2 -2 -2 -3 -3 -3 -3 -4 -4 -4 -5 -5 -5 -6 -7 -7 -7
3 4 4 2 2 2 2 1 -0 -1 -1 -2 -2 -2 -2 -2 -3 -3 -3 -3 -4 -4 -5 -5 -5 -5 -6 -7 -7 -7 -8 -8
4 3 2 2 2 2 1 -0 -1 -1 -2 -2 -3 -3 -3 -3 -3 -4 -4 -4 -5 -5 -5 -6 -7 -7 -7 -8 -8 -8 -9 -10

GFSFLT1_850_temp_018.txt.gz
Temp
17 17 18 18 17 17 15 15 14 15 14 14 14 13 13 13 12 12 12 12 11 11 11 11 10 9 9 9 9 9 9 9
17 17 17 16 16 15 13 13 14 14 13 13 12 12 12 11 11 11 11 11 11 11 11 10 10 8 8 8 8 8 8 8
15 15 16 16 15 15 15 14 14 13 13 13 12 12 11 11 11 10 11 11 11 10 9 9 8 8 7 7 7 7 8 8
15 14 15 15 15 14 14 14 13 13 12 10 10 10 11 10 11 11 11 11 10 9 9 8 8 7 7 7 7 7 7 7
14 13 14 14 14 13 12 12 11 11 11 11 11 9 9 8 8 7 7 8 9 8 8 8 8 6 6 6 6 5 6 6
13 12 11 11 12 11 10 10 10 11 11 11 10 9 9 9 9 8 6 6 6 6 7 7 7 6 5 6 5 3 3 3
12 11 11 10 10 10 10 9 9 9 10 9 9 7 8 7 6 6 6 6 5 5 4 5 5 4 3 2 2 3 2 1
12 11 11 11 10 10 10 10 9 8 8 8 9 6 5 5 5 5 4 5 4 4 3 2 2 1 2 1 0 -1 -1 -1
11 11 11 10 9 9 8 8 8 7 7 7 7 5 5 5 4 4 3 3 3 2 1 1 0 0 0 -0 -1 -1 -1 -1
11 11 11 10 9 8 7 7 8 7 6 6 5 5 4 3 3 3 2 3 1 1 0 0 -0 -1 -1 -1 -2 -2 -3 -2
12 11 10 10 9 8 7 7 7 6 5 4 4 3 3 2 2 2 2 1 0 0 0 -1 -1 -2 -2 -2 -3 -2 -3 -3
11 10 9 8 8 7 7 6 6 5 4 3 3 2 1 1 0 0 -0 -1 -1 -1 -1 -1 -2 -2 -2 -3 -3 -3 -3 -3
11 10 9 8 7 7 6 5 4 4 3 3 2 2 0 -0 -1 -1 -1 -1 -1 -1 -2 -2 -3 -3 -3 -4 -4 -4 -4 -3
10 9 8 7 6 5 5 4 3 3 3 2 1 0 -0 -1 -1 -1 -2 -2 -2 -2 -2 -3 -4 -4 -4 -4 -4 -4 -4 -4
9 8 7 6 5 5 4 3 3 2 1 1 1 -1 -1 -1 -2 -2 -2 -2 -3 -3 -3 -3 -4 -4 -5 -5 -5 -5 -5 -5
7 6 5 5 4 3 3 2 2 1 1 0 -1 -2 -2 -2 -2 -2 -2 -2 -3 -3 -4 -4 -5 -5 -5 -5 -6 -6 -6 -6
5 4 4 4 3 3 2 2 1 0 -0 -1 -1 -2 -2 -2 -2 -3 -3 -3 -4 -4 -4 -5 -5 -5 -6 -6 -6 -7 -7 -6
4 4 4 3 3 2 2 1 0 -0 -1 -1 -2 -2 -2 -3 -3 -3 -4 -4 -5 -5 -5 -5 -6 -6 -7 -7 -7 -7 -8 -8
4 4 4 3 2 2 1 1 0 -1 -1 -2 -2 -3 -3 -3 -4 -4 -5 -5 -5 -5 -6 -6 -7 -7 -8 -8 -8 -8 -9 -8

GFSFLT1_850_temp_021.txt.gz
Temp
21 19 18 18 16 16 16 16 15 14 14 13 13 13 13 13 13 13 11 10 10 9 10 10 10 10 10 10 10 10 10 10
18 16 16 16 15 16 15 15 13 13 14 14 14 14 13 13 13 11 10 10 9 9 9 9 9 9 9 9 9 9 9 9
17 16 15 14 14 14 14 13 12 13 13 12 12 12 12 12 11 10 10 9 10 10 9 9 8 8 8 8 8 8 8 8
17 16 14 13 13 13 13 12 12 11 12 12 12 12 12 12 11 10 10 9 8 8 8 8 6 6 7 7 7 7 7 7
16 15 14 12 12 12 12 11 11 10 11 11 11 10 10 10 10 9 8 7 7 7 7 6 5 5 5 6 6 6 6 6
15 14 13 12 11 11 11 11 11 10 10 10 9 9 9 9 8 7 7 7 7 7 6 6 4 4 4 4 3 3 3 3
15 14 14 13 11 11 11 11 11 10 9 8 8 7 7 7 7 7 7 6 6 5 5 4 3 3 3 3 1 1 2 1
15 14 14 13 12 11 11 11 10 10 9 8 8 7 7 7 6 6 5 5 5 4 3 3 3 2 1 1 0 -0 -1 -0
14 13 13 12 12 11 10 10 10 10 9 8 7 7 6 6 5 4 3 3 3 3 2 2 2 1 0 -0 -1 -1 -1 -2
14 14 13 12 12 11 10 9 9 9 8 8 7 6 5 4 3 2 2 2 2 2 2 1 0 -0 -0 -1 -1 -1 -1 -2
14 13 12 12 11 10 10 9 9 8 7 6 6 5 4 3 2 2 2 1 2 1 1 -0 -1 -1 -1 -2 -2 -2 -2 -2
13 12 11 11 10 10 9 8 7 7 6 5 4 4 3 2 2 1 1 1 1 1 0 -1 -1 -2 -2 -2 -3 -3 -3 -3
12 12 11 10 9 9 8 7 6 6 5 4 4 3 2 2 2 0 -0 -0 -1 -1 -1 -1 -2 -2 -3 -4 -4 -4 -4 -4
11 11 10 10 9 8 7 6 5 4 4 4 3 3 1 0 -0 -1 -1 -1 -1 -1 -2 -2 -3 -3 -3 -3 -3 -3 -3 -3
11 10 9 8 7 7 6 5 4 4 3 3 2 1 -1 -1 -1 -1 -1 -1 -1 -1 -1 -2 -2 -3 -3 -3 -4 -5 -5 -4
10 8 7 7 7 6 5 4 4 3 2 2 2 1 -0 -1 -1 -1 -1 -2 -2 -2 -2 -3 -3 -3 -3 -4 -5 -6 -6 -6
6 6 7 6 6 6 5 4 3 3 2 2 1 0 -1 -2 -2 -2 -2 -2 -2 -3 -3 -3 -3 -4 -4 -5 -6 -6 -7 -7
4 6 6 6 6 5 4 4 3 3 2 2 1 -1 -1 -2 -2 -2 -2 -3 -3 -3 -4 -4 -4 -5 -5 -6 -6 -7 -8 -8
6 6 6 6 5 5 4 4 3 3 3 2 -0 -1 -2 -2 -2 -2 -3 -3 -3 -4 -4 -4 -5 -5 -7 -7 -7 -8 -9 -8

GFSFLT1_850_temp_024.txt.gz
Temp
21 20 19 18 18 18 17 17 15 15 15 14 14 14 14 13 13 13 12 12 11 10 11 11 11 11 11 10 10 10 9 9
17 17 17 17 16 16 16 15 15 14 14 14 14 14 14 13 13 12 11 11 10 10 10 9 9 9 8 8 9 9 8 8
16 15 15 15 14 14 14 14 13 13 13 13 13 12 12 12 12 11 11 10 10 9 9 8 7 7 7 7 7 7 7 7
16 15 13 13 13 13 13 12 12 13 13 12 12 12 12 12 12 12 11 10 9 8 7 7 7 6 6 6 6 6 6 6
16 14 13 12 12 12 12 12 11 11 12 11 11 10 10 10 10 9 9 9 7 7 7 7 6 6 5 5 4 5 5 5
15 14 13 12 12 11 11 12 12 11 10 9 9 8 8 8 8 7 7 7 7 7 6 5 5 5 4 3 3 3 3 3
15 15 14 13 12 12 11 11 11 11 10 9 9 8 7 7 7 6 6 5 5 5 4 4 4 3 3 3 2 2 1 0
15 15 14 13 13 12 11 11 10 10 10 9 9 8 7 6 6 5 4 4 3 3 3 3 2 3 2 2 2 1 0 -0
15 14 14 13 13 12 11 11 10 10 9 9 8 7 6 6 5 4 4 2 2 2 2 2 2 1 1 0 -0 -1 -1 -1
15 14 14 13 12 11 11 10 10 9 8 7 6 6 6 5 4 3 2 2 1 2 1 1 0 -0 -0 -1 -1 -1 -1 -2
14 14 13 12 11 11 10 9 9 8 7 6 6 5 4 4 3 2 2 1 1 1 0 -0 -0 -1 -1 -1 -1 -1 -2 -2
14 13 12 11 10 10 9 9 8 7 6 5 5 4 4 3 2 2 1 1 1 -0 -1 -1 -1 -1 -2 -2 -3 -3 -3 -3
13 12 11 10 10 9 9 8 7 6 5 4 4 4 3 3 2 1 -0 -0 -0 -1 -1 -1 -1 -2 -2 -3 -3 -3 -3 -3
12 11 10 10 9 8 8 7 6 5 5 4 3 3 2 1 0 -1 -1 -1 -1 -1 -1 -1 -2 -2 -2 -3 -3 -3 -3 -3
11 10 9 8 8 7 7 6 5 5 4 3 3 2 2 0 -0 -1 -1 -1 -1 -1 -2 -2 -2 -3 -3 -3 -3 -3 -4 -4
9 7 7 7 7 7 6 6 5 4 4 3 3 2 1 0 -0 -1 -2 -2 -2 -2 -2 -3 -3 -3 -3 -4 -4 -5 -5 -5
7 6 6 7 7 6 6 5 5 4 4 3 3 2 0 -0 -1 -1 -2 -2 -2 -3 -3 -3 -3 -4 -4 -4 -5 -6 -6 -7
6 6 7 7 6 6 6 5 5 3 3 3 3 2 -0 -1 -1 -2 -2 -2 -3 -3 -3 -4 -4 -5 -5 -6 -6 -7 -8 -8
6 7 7 6 6 6 5 5 4 4 3 3 3 1 -0 -1 -2 -2 -2 -3 -3 -3 -4 -4 -5 -5 -6 -7 -7 -8 -9 -9

GFSFLT1_850_temp_027.txt.gz
Temp
18 18 19 18 18 18 17 16 15 15 14 14 14 14 13 13 13 13 13 12 12 11 11 11 10 9 9 9 8 8 8 8
16 16 17 17 17 17 17 16 16 15 14 14 13 13 13 13 12 12 11 11 11 11 10 9 8 8 8 7 7 7 7 7
15 15 15 16 15 15 15 15 14 14 13 13 13 13 13 12 11 11 10 10 9 8 8 8 7 7 7 6 6 6 6 6
15 14 14 14 14 13 13 14 14 13 13 12 12 12 12 11 11 10 9 9 8 8 7 7 7 6 6 5 5 5 5 4
14 13 13 13 12 12 12 12 12 12 11 11 11 10 10 9 9 9 8 8 7 7 7 6 6 5 5 5 4 3 3 3
14 14 13 13 12 12 12 11 11 10 10 10 10 9 8 8 7 7 7 6 6 6 6 5 4 4 3 3 3 3 3 2
15 14 13 13 12 12 11 11 11 10 10 9 9 8 8 7 7 7 6 5 5 4 3 3 2 2 2 2 2 2 2 1
14 14 13 13 12 12 11 11 10 10 10 9 8 7 7 6 6 6 5 5 4 3 2 2 1 2 2 2 1 0 -0 -0
15 14 13 13 12 12 11 11 10 9 9 8 8 7 6 5 5 4 4 3 2 1 1 1 1 0 0 -0 -0 -1 -2 -1
14 14 13 12 12 11 10 10 9 9 8 7 6 5 5 4 4 4 3 2 1 1 1 0 -0 -0 -1 -1 -2 -2 -2 -2
13 13 12 12 11 11 10 9 9 8 7 6 5 5 4 4 4 3 2 1 1 0 -0 -1 -1 -1 -2 -2 -2 -2 -3 -2
12 12 11 11 10 9 9 8 8 7 6 6 5 5 4 3 3 2 2 2 1 -0 -1 -1 -1 -2 -2 -2 -3 -3 -3 -3
12 11 10 10 9 9 8 7 7 6 6 5 4 4 4 3 3 2 2 0 -1 -1 -1 -1 -2 -2 -2 -3 -3 -3 -3 -3
10 10 9 9 8 7 7 7 6 6 5 5 4 4 3 3 2 2 1 -0 -1 -2 -2 -2 -2 -2 -3 -3 -3 -3 -4 -4
9 8 8 8 7 7 7 6 6 5 5 4 4 3 3 2 2 1 1 -0 -1 -2 -2 -2 -3 -3 -3 -4 -4 -4 -4 -5
7 7 7 7 7 6 6 6 6 5 5 4 3 3 2 2 1 -0 -1 -1 -2 -2 -2 -3 -3 -4 -4 -4 -4 -4 -5 -6
6 6 6 7 6 6 6 6 5 5 4 4 3 3 1 0 -1 -1 -3 -2 -2 -2 -3 -3 -4 -4 -4 -5 -5 -6 -6 -7
6 6 6 6 6 6 5 4 4 4 3 3 2 1 0 0 -1 -2 -3 -2 -2 -3 -3 -4 -4 -5 -5 -5 -6 -7 -7 -8
6 6 6 6 6 5 4 3 3 3 2 1 1 1 -0 -2 -2 -3 -3 -3 -3 -3 -4 -4 -5 -5 -6 -7 -7 -8 -8 -9

GFSFLT1_850_temp_030.txt.gz
Temp
16 16 17 17 16 16 15 15 16 14 13 13 13 13 13 13 12 11 11 11 11 10 10 10 9 9 9 9 8 8 8 7
15 15 15 14 14 14 13 12 12 12 12 12 12 12 12 12 11 10 10 10 10 9 9 8 8 8 7 7 7 7 6 6
14 15 14 14 13 12 12 12 12 12 13 13 13 12 12 11 10 10 10 9 9 8 8 8 7 6 6 6 6 6 5 4
14 14 14 14 14 13 13 13 12 12 12 11 11 11 11 11 11 10 10 9 8 7 7 6 6 6 6 6 5 4 3 3
14 14 14 14 14 13 13 13 12 12 12 12 11 11 10 10 9 8 8 7 7 6 6 5 5 5 4 3 3 2 2 2
14 14 14 13 13 12 12 12 12 12 11 11 10 9 9 8 8 7 7 6 6 6 5 5 4 3 2 2 1 2 1 1
14 13 13 13 12 12 11 11 11 11 10 10 10 9 8 7 7 6 6 6 5 5 4 3 2 1 1 1 0 0 0 -1
14 14 13 12 12 11 11 11 10 10 10 9 9 8 7 6 6 5 5 4 4 3 2 1 1 0 0 -0 -0 -1 -1 -1
14 13 12 12 12 11 11 11 10 10 9 9 8 7 6 5 5 5 4 3 2 2 1 1 -0 -1 -1 -1 -1 -2 -2 -2
13 12 12 11 11 10 10 9 9 9 8 8 6 6 6 5 5 4 3 3 2 2 1 -0 -0 -1 -1 -2 -2 -2 -2 -3
12 11 11 10 10 9 9 9 8 8 7 7 6 6 6 5 5 4 3 3 2 2 1 0 -1 -1 -2 -2 -2 -3 -3 -3
10 10 10 10 9 9 9 8 7 7 6 6 6 5 5 4 4 4 3 2 2 2 -0 -1 -1 -2 -2 -2 -3 -3 -3 -3
10 10 9 9 9 8 7 7 7 6 6 5 5 5 4 4 4 3 2 2 1 1 -1 -2 -2 -2 -2 -3 -3 -3 -4 -4
10 10 9 8 8 7 7 6 6 6 6 5 5 4 4 3 3 2 2 1 -1 -2 -2 -2 -2 -2 -3 -3 -4 -4 -4 -4
8 8 7 7 7 6 6 6 5 5 5 4 4 3 3 2 1 1 0 -1 -2 -3 -2 -2 -2 -3 -3 -4 -4 -4 -5 -5
6 6 6 6 6 6 6 6 5 5 4 4 3 3 2 2 0 -0 -1 -2 -3 -3 -3 -2 -3 -3 -4 -4 -5 -5 -5 -6
6 6 6 6 6 5 5 4 4 4 3 3 2 2 1 0 -0 -1 -1 -2 -3 -4 -4 -3 -3 -4 -4 -5 -5 -6 -6 -7
6 6 5 5 5 4 4 3 3 2 2 2 1 1 0 -0 -1 -1 -1 -2 -3 -4 -5 -5 -4 -5 -5 -6 -6 -7 -8 -9
5 5 5 5 4 4 3 2 2 1 1 1 0 -0 -0 -1 -2 -3 -3 -3 -4 -5 -5 -5 -5 -5 -6 -6 -7 -8 -9 -9

GFSFLT1_850_temp_033.txt.gz
Temp
16 18 18 17 17 16 15 15 15 13 13 13 13 12 12 12 12 11 11 11 10 10 10 9 9 9 8 8 7 7 7 6
14 15 15 15 15 16 15 13 13 12 12 12 12 12 12 11 11 11 10 10 9 9 9 8 8 7 7 6 6 6 6 6
14 14 14 14 13 14 13 13 13 12 12 12 11 11 11 11 10 10 10 10 9 8 7 7 7 6 6 6 6 5 5 4
13 13 14 14 14 13 13 13 13 12 12 12 11 11 11 11 10 10 9 8 8 7 6 6 6 5 5 4 3 3 2 2
13 13 13 13 13 12 12 12 12 12 12 11 11 11 10 10 9 9 8 7 6 6 5 5 4 4 4 2 1 1 1 1
13 13 13 12 12 12 12 11 11 11 11 11 10 10 9 8 8 7 7 6 6 5 5 4 3 3 2 1 1 0 -1 -1
13 13 12 12 12 11 11 11 11 11 10 10 10 9 8 7 7 7 6 5 5 4 4 3 3 2 1 1 0 -1 -1 -1
12 13 12 12 11 11 11 10 10 10 10 9 9 8 8 7 6 6 5 5 4 4 3 2 2 2 1 -0 -1 -1 -1 -1
13 13 12 12 11 11 10 10 10 9 9 8 8 7 6 6 6 5 5 4 4 3 2 2 1 0 -0 -1 -1 -2 -2 -2
13 12 11 11 11 10 10 9 9 8 8 7 7 6 6 5 5 5 4 3 3 3 2 2 1 -0 -1 -2 -2 -2 -3 -3
11 11 11 10 10 9 9 9 8 7 7 6 6 5 5 5 4 3 3 3 2 2 1 1 -0 -1 -2 -2 -2 -3 -3 -3
10 10 9 9 9 8 8 7 7 6 6 6 5 5 4 3 3 3 2 2 1 1 -0 -2 -3 -3 -2 -2 -3 -3 -3 -4
9 9 9 8 8 8 7 6 6 6 5 5 4 4 3 3 2 2 1 1 0 -0 -1 -1 -2 -3 -3 -3 -3 -4 -4 -4
8 8 8 7 7 7 6 6 6 5 5 5 5 3 3 3 2 2 1 1 -0 -0 -2 -4 -4 -3 -3 -3 -3 -4 -4 -5
7 7 7 6 6 6 6 5 5 5 4 4 3 3 2 2 1 0 -0 -1 -1 -2 -2 -3 -3 -4 -4 -4 -4 -5 -5 -6
7 6 6 6 6 5 5 4 4 4 3 3 3 2 1 1 0 -1 -1 -1 -2 -2 -3 -4 -4 -5 -5 -5 -5 -5 -6 -6
6 6 6 6 5 4 4 4 3 3 2 2 1 1 0 -0 -1 -1 -2 -3 -3 -4 -4 -4 -5 -5 -5 -5 -6 -6 -6 -7
5 5 5 5 4 4 3 3 2 2 1 1 0 -0 -1 -1 -2 -2 -3 -3 -4 -4 -5 -6 -5 -6 -6 -6 -6 -7 -8 -9
5 5 4 4 3 3 3 2 2 1 1 0 -0 -1 -1 -2 -2 -3 -3 -4 -5 -4 -5 -5 -6 -6 -6 -6 -7 -8 -9 -9

GFSFLT1_850_temp_036.txt.gz
Temp
16 17 17 17 16 15 13 12 11 11 10 10 11 12 12 12 12 11 11 10 10 10 9 9 9 8 8 7 7 7 6 6
14 14 14 13 12 13 12 12 12 9 10 11 11 11 11 11 11 11 10 10 10 9 9 8 7 7 7 6 6 6 6 5
12 12 12 12 12 13 13 12 11 11 11 12 12 12 12 11 11 10 10 9 9 8 7 7 6 6 6 6 5 5 4 3
13 13 13 13 13 13 13 13 13 13 13 12 12 11 11 10 10 9 9 8 7 7 6 6 5 5 4 4 4 3 3 2
13 13 13 13 13 13 13 12 12 12 11 11 11 10 10 9 9 8 8 7 6 6 5 5 4 4 4 3 2 1 1 -0
13 13 13 12 12 12 12 12 11 11 10 10 10 9 9 8 7 7 6 6 5 5 4 4 3 3 3 2 1 0 -1 -1
12 13 13 12 12 11 11 10 10 10 10 9 9 9 8 7 6 6 5 5 4 4 4 3 3 2 2 1 -0 -1 -1 -2
12 13 12 11 11 10 10 10 10 9 9 9 8 7 6 6 6 5 4 4 4 3 3 2 2 2 2 0 -1 -2 -2 -2
12 11 11 10 10 10 10 10 9 9 8 8 7 6 6 5 5 4 3 3 3 2 2 2 1 1 0 -0 -1 -2 -2 -2
11 11 10 10 10 10 9 9 9 8 7 6 6 5 5 4 4 3 3 2 2 1 1 1 0 -0 -1 -1 -2 -2 -2 -3
10 10 10 10 10 9 9 9 7 6 6 6 5 5 4 4 3 3 2 2 2 1 0 0 -1 -2 -3 -4 -3 -3 -3 -3
10 10 9 9 9 9 8 8 7 6 6 5 5 5 4 3 2 2 1 1 1 0 -0 -1 -1 -2 -3 -4 -4 -3 -4 -4
9 9 9 9 8 8 7 6 6 6 5 5 4 4 3 3 2 1 1 1 0 -1 -1 -1 -2 -2 -3 -4 -5 -4 -4 -4
8 8 8 7 7 7 6 6 6 5 4 4 3 3 2 1 1 0 -0 -1 -1 -2 -2 -2 -3 -3 -4 -5 -5 -5 -5 -5
8 8 7 7 6 5 6 5 5 4 4 3 3 2 1 0 0 -0 -1 -1 -2 -3 -3 -4 -4 -4 -5 -5 -5 -5 -6 -6
7 6 6 6 6 5 5 4 4 3 3 2 1 1 0 -0 -1 -1 -2 -2 -2 -4 -4 -4 -4 -5 -5 -5 -6 -6 -6 -6
6 6 6 5 5 5 4 4 3 2 2 1 1 0 -0 -1 -2 -2 -2 -3 -3 -4 -4 -4 -5 -6 -6 -6 -6 -6 -6 -7
6 5 5 5 4 4 3 2 2 1 1 1 -0 -1 -1 -2 -2 -3 -3 -3 -3 -5 -5 -5 -6 -6 -6 -6 -6 -7 -7 -8
5 5 4 4 3 3 2 2 1 1 0 -0 -1 -2 -2 -2 -3 -3 -4 -4 -5 -5 -6 -6 -6 -6 -6 -7 -7 -7 -8 -8

GFSFLT1_850_temp_042.txt.gz
Temp
13 15 15 14 14 13 14 13 13 12 11 11 11 10 11 11 11 11 10 10 9 9 8 8 7 6 6 6 5 5 5 5
13 15 15 15 14 13 12 12 12 11 11 11 11 11 11 11 10 10 9 9 8 8 7 6 6 5 4 4 4 4 4 4
12 12 11 11 11 11 11 11 12 12 11 11 10 11 10 10 10 9 9 8 7 6 6 5 4 5 4 3 3 3 4 4
12 12 12 11 11 11 11 11 12 11 11 11 11 11 10 10 9 9 8 7 6 6 6 6 5 4 4 3 3 2 3 3
13 12 12 12 12 12 12 11 11 12 11 10 10 11 10 9 8 7 6 7 6 6 5 5 4 3 3 3 2 1 2 2
13 13 13 12 12 11 12 12 10 11 11 10 9 9 8 8 7 6 6 5 5 5 4 3 3 2 2 2 1 1 1 1
13 13 12 11 12 12 10 10 11 10 9 10 9 8 7 7 6 6 6 5 4 4 3 2 2 2 1 1 1 -0 -0 -1
13 12 12 11 10 9 10 9 9 9 9 9 8 7 6 6 6 6 5 5 4 4 2 2 2 1 1 0 -0 -0 -1 -1
13 13 12 11 10 10 10 9 9 9 8 7 7 6 6 6 5 4 4 3 3 1 1 1 1 0 0 -0 -1 -1 -1 -2
13 12 11 11 10 9 9 9 8 8 8 7 7 6 6 5 4 4 3 2 2 1 1 1 0 -0 -0 -1 -1 -1 -2 -2
13 12 11 10 9 8 9 8 8 8 7 6 6 5 5 4 4 2 2 1 1 1 0 -0 -0 -1 -1 -1 -2 -1 -2 -3
12 11 9 9 8 8 8 8 7 7 6 5 5 4 4 3 2 2 1 0 0 -0 -1 -1 -1 -1 -2 -3 -3 -3 -4 -4
11 10 9 8 8 7 7 7 6 6 5 4 3 4 3 2 2 1 0 -0 -1 -1 -2 -2 -2 -2 -3 -3 -4 -3 -4 -4
10 9 9 8 8 6 6 6 6 5 4 4 3 3 2 2 1 0 -1 -1 -2 -2 -2 -2 -2 -3 -4 -4 -4 -4 -4 -4
9 9 8 8 7 6 6 6 5 4 4 4 3 2 1 1 -0 -1 -2 -2 -2 -3 -3 -3 -3 -4 -4 -4 -4 -5 -5 -5
10 9 8 7 6 5 6 4 4 4 3 3 2 1 0 -0 -1 -2 -2 -3 -3 -4 -4 -4 -5 -4 -5 -5 -5 -5 -5 -6
9 8 7 7 5 5 4 4 3 4 3 2 1 0 -0 -1 -2 -2 -3 -3 -4 -4 -5 -5 -5 -5 -5 -5 -6 -6 -6 -7
8 7 6 5 5 4 4 3 4 3 2 1 -0 -0 -1 -2 -2 -3 -3 -4 -4 -5 -5 -6 -6 -6 -6 -6 -6 -7 -8 -8
7 6 5 5 4 4 4 3 3 2 1 -0 -1 -1 -2 -2 -3 -4 -4 -4 -5 -6 -6 -6 -6 -7 -6 -6 -7 -8 -8 -9